CZ-4B R/B, 43656

Orbit data source: Space-Track

CZ-4B R/B, 43656 is space debris in SSO originally from a launch on Wed, 24 Oct 2018 UTC via a CHANG ZHENG 4B launch vehicle from the Taiyaun Space Center, China (TSC). Debris objects in space refer to the collection of defunct objects orbiting the Earth. Examples of debris include non-operational satellites, rocket bodies, and fragments generated from explosions, collisions, or faulty payload assembly.

Loading next visibility...
CZ-4B R/B details
Identifier
43656, 2018-081B
Orbit
SSO
Last TLE update8 hours ago
Origin
Flag of CNAliExpress (CN / PRC)
ManufacturerSAST?
MissionCommercial Communications
Bus & MotorUnknown
Mass1,020 kg wet, 20 kg dry
Launch date (UTC)
2018-10-24 (6 years ago)
Launch vehicle
CHANG ZHENG 4B
Launch site
Taiyaun Space Center, China (TSC)
Object type
Payload
Rocket body
Debris
Shape & HBRBox, 0.3 m
Radar Cross Section0.135 m², Large (>1 m²)

Expand to show TLE details & history

TLE from 8 hours ago
0 CZ-4B R/B
1 43656U 18081B   24361.20411601  .00000526  00000-0  17416-3 0  9998
2 43656  99.4188 224.2386 0206037  15.4676 345.2677 14.31482656322325
Epoch: 2024-12-26T04:53Z
Definitive object data (Epoch: 2024-12-26T04:53:55.623Z)
Latitude0.00005°
Longitude55.56996°
Altitude647.09 km
Speed7.609 km/s
True Right ascension14h 56m 57s
True Declination0° 00' 00"
Sunlit
Object was in daylight at TLE epoch
Visualization TLE readout
Latitude-76.56391°
Longitude99.6182°
Altitude823.502 km
Speed7.436 km/s
Apparent Right ascension22h 58m 58s
Apparent Declination-65° 36' 32"
Sunlit
Object is in daylight
Visualization observer readout
Local Sidereal Time12:16:47
Azimuth162.958° S
Elevation-62.013°
Doppler factor1
Orbital elements
Apogee altitude931.522 km
Perigee altitude636.391 km
Semi-major axis7,162.093 km
Eccentricity0.0206037
Inclination99.4188°
RAAN224.2386°
Arg. of periapsis15.4676°
True anomaly344.65198°
Mean anomaly345.2677°
Eccentric anomaly344.96139°
Mean motion3.58083 °/min
BSTAR0.00017416
Orbital period100.54 mins
Loading maneuver chart data...
Loading historical data...
Loading historical data...
Loading historical data...
Loading historical data...
Loading historical data...
Loading historical data...
Loading historical data...

CZ-4B R/B Visibility forecast

Observer location: undefined°, undefined

Span
Click to sort rows by Start time (UTC) header in descending order
Start Az.
Max El. time (UTC)
Max El. Az.
Max El.
End time (UTC)
End Az.
7 mins2024-12-26 15:05:11.942Z167.865° S2024-12-26 15:08:11.942Z187.868° SSW43.477°2024-12-26 15:12:11.942Z343.156° N
8 mins2024-12-27 03:18:11.942Z47.929° ENE2024-12-27 03:21:11.942Z98.675° ESE29.574°2024-12-27 03:26:11.942Z162.231° S
8 mins2024-12-27 04:57:11.942Z343.64° N2024-12-27 05:00:11.942Z296.831° NW28.419°2024-12-27 05:05:11.942Z232.367° WSW
|